"Timestamp","TZ","WindDir_Mean (deg)","WindSpd_Mean (km/h)","WindSpd_Min (km/h)","WindSpd_Max (km/h)","Temp_Mean (deg)","RH_Mean (%)","MSLP_Mean (hPa)","Rain_Acc (mm)","Rain_Intensity (mm/h)","Hail_Acc (hits/cm2)","Hail_Intensity (hits/cm2hr)","Solar_Mean (W/m2)"
2021/03/16 00:00:00.005,n,179,8.64,6.84,10.440002,19.7,86.6,1020.02,0,0,0,0,0.02697
2021/03/16 00:01:00.000,n,181,8.64,7.92,9,19.6,86.4,1020.02,0.02,1.3,0,0,0.033073
2021/03/16 00:02:00.001,n,195,9.72,9.36,10.08,19.6,86.4,1020.02,0.02,0,0,0,0.032158
2021/03/16 00:03:00.000,n,203,9,5.04,10.8,19.6,86.6,1020.02,0.03,0.1,0,0,0.032158
2021/03/16 00:04:00.000,n,181,9.72,9,10.8,19.6,86.5,1020.02,0.03,0.1,0,0,0.031319
2021/03/16 00:05:00.000,n,187,12.24,11.52,12.6,19.6,86.4,1020.02,0.03,0.2,0,0,0.033073
2021/03/16 00:06:00.010,n,167,9.72,9,10.8,19.6,86.5,1020.02,0.03,0.1,0,0,0.029564
2021/03/16 00:07:00.007,n,171,5.4,0.72,7.92,19.6,86.5,1020.02,0.04,0,0,0,0.02697
2021/03/16 00:08:00.005,n,184,5.04,4.68,5.76,19.6,86.6,1020.02,0.04,0,0,0,0.028725
2021/03/16 00:09:00.003,n,172,9.36,8.64,10.440002,19.6,86.5,1020.02,0.04,0,0,0,0.028725
2021/03/16 00:10:00.001,n,160,3.24,1.44,5.76,19.6,86.6,1020.02,0.04,0,0,0,0.027847
2021/03/16 00:11:00.000,n,175,6.84,5.76,7.2,19.6,86.5,1020.02,0.04,0,0,0,0.029564
2021/03/16 00:12:00.000,n,234,2.88,2.16,4.68,19.6,86.5,1020.02,0.06,1.1,0,0,0.025215
2021/03/16 00:13:00.000,n,312,1.8,1.08,2.52,19.6,86.7,1020.02,0.06,0.3,0,0,0.027847
2021/03/16 00:14:00.000,n,260,2.16,1.8,2.88,19.6,86.7,1020.02,0.08,0.7,0,0,0.026093
2021/03/16 00:15:00.008,n,146,1.08,0.72,1.44,19.6,86.8,1020.02,0.08,0.5,0,0,0.028725
2021/03/16 00:16:00.006,n,227,1.08,0.72,1.44,19.7,86.8,1020.02,0.09,0.3,0,0,0.025215
2021/03/16 00:17:00.003,n,153,2.88,1.44,3.96,19.7,86.6,1020.02,0.1,0.3,0,0,0.020866
2021/03/16 00:18:00.001,n,266,2.16,1.44,2.88,19.7,86.8,1019.92,0.11,0.6,0,0,0.02697
2021/03/16 00:19:00.000,n,199,7.56,6.84,7.92,19.7,86.7,1020.02,0.12,0.7,0,0,0.025215
2021/03/16 00:20:00.000,n,62,1.44,0.72,2.16,19.7,86.6,1019.92,0.12,0.4,0,0,0.02697
2021/03/16 00:21:00.000,n,164,4.68,3.96,5.76,19.7,86.8,1019.92,0.13,0.3,0,0,0.02697
2021/03/16 00:22:00.000,n,199,3.24,2.88,3.6,19.7,86.8,1019.82,0.13,0.3,0,0,0.025215
2021/03/16 00:23:00.000,n,174,5.4,3.96,6.48,19.7,86.7,1019.82,0.13,0.1,0,0,0.028725
2021/03/16 00:24:00.009,n,157,4.68,3.96,5.4,19.7,86.5,1019.82,0.14,0.2,0,0,0.026093
2021/03/16 00:25:00.006,n,194,3.96,3.24,4.32,19.6,86.6,1019.82,0.14,0.1,0,0,0.02697
2021/03/16 00:26:00.003,n,166,2.88,1.08,3.24,19.6,86.6,1019.82,0.14,0,0,0,0.026093
2021/03/16 00:27:00.001,n,179,3.96,3.24,4.68,19.6,86.6,1019.82,0.14,0,0,0,0.026093
2021/03/16 00:28:00.000,n,200,3.96,3.6,4.32,19.6,86.7,1019.82,0.16,1,0,0,0.028725
2021/03/16 00:29:00.000,n,272,1.8,1.44,2.16,19.6,86.7,1019.82,0.16,0.1,0,0,0.022583
2021/03/16 00:30:00.000,n,217,1.44,1.08,2.16,19.6,86.8,1019.82,0.16,0.3,0,0,0.027847
2021/03/16 00:31:00.000,n,252,2.88,2.88,3.24,19.6,86.8,1019.82,0.16,0,0,0,0.027847
2021/03/16 00:32:00.008,n,254,5.04,3.96,5.4,19.6,86.7,1019.82,0.16,0,0,0,0.025215
2021/03/16 00:33:00.004,n,278,5.4,5.04,6.12,19.6,86.6,1019.82,0.17,0,0,0,0.023499
2021/03/16 00:34:00.001,n,288,3.24,1.44,3.6,19.6,86.6,1019.82,0.17,0.1,0,0,0.029564
2021/03/16 00:35:00.000,n,274,3.24,2.16,3.96,19.6,86.6,1019.82,0.17,0,0,0,0.02697
2021/03/16 00:36:00.013,n,276,4.68,4.32,5.76,19.6,86.7,1019.72,0.17,0,0,0,0.029564
2021/03/16 00:37:00.000,n,260,4.68,3.96,5.4,19.6,86.7,1019.82,0.17,0,0,0,0.026093
2021/03/16 00:38:00.000,n,259,5.04,4.68,5.4,19.6,86.6,1019.82,0.17,0,0,0,0.029564
2021/03/16 00:39:00.005,n,262,5.4,5.04,6.12,19.6,86.7,1019.72,0.17,0,0,0,0.029564
2021/03/16 00:40:00.002,n,260,5.76,5.4,6.12,19.6,86.6,1019.72,0.17,0.2,0,0,0.030441
2021/03/16 00:41:00.000,n,232,3.6,1.44,4.32,19.5,86.7,1019.72,0.17,0,0,0,0.030441
2021/03/16 00:42:00.000,n,91,1.08,0.36,1.8,19.5,86.7,1019.72,0.18,0.5,0,0,0.029564
2021/03/16 00:43:00.000,n,230,2.16,1.44,3.24,19.5,86.8,1019.72,0.18,0,0,0,0.029564
2021/03/16 00:44:00.012,n,267,5.4,4.68,6.12,19.6,87.2,1019.72,0.18,0,0,0,0.030441
2021/03/16 00:45:00.009,n,271,5.04,4.68,6.12,19.6,86.7,1019.72,0.18,0,0,0,0.027847
2021/03/16 00:46:00.000,n,276,2.52,1.44,3.24,19.6,86.6,1019.62,0.18,0,0,0,0.026093
2021/03/16 00:47:00.000,n,252,2.88,2.52,3.24,19.6,86.7,1019.62,0.18,0,0,0,0.030441
2021/03/16 00:48:00.003,n,246,6.48,6.12,7.2,19.5,86.6,1019.62,0.18,0,0,0,0.031319
2021/03/16 00:49:00.000,n,256,5.4,3.96,6.48,19.5,86.6,1019.62,0.18,0,0,0,0.028725
2021/03/16 00:50:00.000,n,210,2.88,2.52,3.6,19.5,86.5,1019.62,0.18,0,0,0,0.031319
2021/03/16 00:51:00.011,n,300,1.8,1.44,2.52,19.5,86.8,1019.62,0.18,0,0,0,0.027847
2021/03/16 00:52:00.007,n,283,7.56,5.04,9,19.5,86.7,1019.62,0.18,0,0,0,0.026093
2021/03/16 00:53:00.005,n,250,3.96,3.24,4.32,19.5,86.6,1019.62,0.18,0,0,0,0.032158
2021/03/16 00:54:00.003,n,288,2.52,2.52,2.88,19.5,86.6,1019.62,0.18,0,0,0,0.032158
2021/03/16 00:55:00.001,n,322,3.96,2.52,5.4,19.5,86.7,1019.62,0.18,0,0,0,0.032158
2021/03/16 00:56:00.000,n,243,1.8,1.08,2.16,19.5,86.7,1019.62,0.18,0,0,0,0.02697
2021/03/16 00:57:00.000,n,207,0.72,0,0.72,19.5,86.8,1019.52,0.18,0,0,0,0.030441
2021/03/16 00:58:00.000,n,222,0.72,0.36,2.52,19.5,86.9,1019.52,0.18,0,0,0,0.030441
2021/03/16 00:59:00.009,n,235,3.6,3.24,3.96,19.5,86.7,1019.52,0.18,0,0,0,0.027847
2021/03/16 01:00:00.006,n,173,2.16,1.8,2.52,19.5,86.8,1019.52,0.18,0,0,0,0.02697
2021/03/16 01:01:00.003,n,170,9.72,8.28,11.88,19.5,86.7,1019.42,0.18,0,0,0,0.029564
2021/03/16 01:02:00.000,n,209,3.96,3.24,5.04,19.4,86.5,1019.52,0.18,0,0,0,0.031319
2021/03/16 01:03:00.015,n,195,4.32,3.96,4.68,19.4,86.6,1019.42,0.18,0,0,0,0.028725
2021/03/16 01:04:00.000,n,186,5.4,3.24,7.2,19.4,86.6,1019.42,0.18,0,0,0,0.030441
2021/03/16 01:05:00.000,n,198,2.52,1.8,2.88,19.4,86.6,1019.42,0.18,0,0,0,0.030441
2021/03/16 01:06:00.000,n,157,3.6,2.88,3.6,19.4,86.6,1019.42,0.18,0,0,0,0.027847
2021/03/16 01:07:00.003,n,173,3.96,3.6,4.68,19.4,86.7,1019.42,0.18,0,0,0,0.025215
2021/03/16 01:08:00.000,n,328,0.36,0,1.08,19.4,86.8,1019.42,0.18,0,0,0,0.026093
2021/03/16 01:09:00.000,n,157,2.88,1.8,3.24,19.4,87,1019.42,0.18,0,0,0,0.023499
2021/03/16 01:10:00.012,n,205,5.04,4.68,5.76,19.4,86.8,1019.42,0.18,0,0,0,0.026093
2021/03/16 01:11:00.009,n,303,0.72,0.36,1.44,19.4,86.8,1019.42,0.18,0,0,0,0.026093
2021/03/16 01:12:00.006,n,142,2.16,1.44,2.88,19.4,86.6,1019.42,0.18,0,0,0,0.025215
2021/03/16 01:13:00.000,n,253,3.24,2.52,3.6,19.4,86.8,1019.42,0.18,0,0,0,0.02697
2021/03/16 01:14:00.001,n,229,1.8,1.08,2.16,19.5,87,1019.42,0.18,0,0,0,0.027847
2021/03/16 01:15:00.000,n,223,2.52,2.16,3.24,19.5,86.8,1019.42,0.18,0,0,0,0.028725
2021/03/16 01:16:00.000,n,215,3.24,2.88,3.6,19.5,86.6,1019.42,0.18,0,0,0,0.028725
2021/03/16 01:17:00.009,n,263,4.32,3.24,5.04,19.4,86.6,1019.32,0.18,0,0,0,0.025215
2021/03/16 01:18:00.006,n,262,7.2,6.48,7.56,19.4,86.4,1019.32,0.18,0,0,0,0.02697
2021/03/16 01:19:00.003,n,166,2.52,2.16,2.52,19.4,86.5,1019.32,0.18,0,0,0,0.027847
2021/03/16 01:20:00.000,n,175,2.52,2.16,2.88,19.4,86.6,1019.32,0.18,0,0,0,0.02697
2021/03/16 01:21:00.014,n,267,3.6,2.88,3.6,19.4,86.5,1019.32,0.18,0,0,0,0.028725
2021/03/16 01:22:00.000,n,252,2.16,1.44,2.52,19.4,86.5,1019.32,0.18,0,0,0,0.025215
2021/03/16 01:23:00.000,n,266,4.32,3.96,4.68,19.4,86.6,1019.32,0.18,0,0,0,0.02697
2021/03/16 01:24:00.005,n,282,3.24,2.52,3.96,19.4,86.6,1019.32,0.18,0,0,0,0.02697
2021/03/16 01:25:00.002,n,278,5.76,5.4,6.48,19.4,86.5,1019.32,0.18,0,0,0,0.027847
2021/03/16 01:26:00.000,n,274,4.32,3.6,5.4,19.3,86.5,1019.32,0.18,0,0,0,0.025215
2021/03/16 01:27:00.000,n,282,4.32,3.6,5.04,19.3,86.6,1019.32,0.18,0,0,0,0.028725
2021/03/16 01:28:00.011,n,266,4.68,4.32,5.04,19.3,86.5,1019.32,0.18,0,0,0,0.030441
2021/03/16 01:29:00.008,n,253,6.12,5.4,6.84,19.3,86.6,1019.32,0.18,0,0,0,0.029564
2021/03/16 01:30:00.005,n,255,4.68,3.24,6.48,19.3,86.7,1019.32,0.18,0,0,0,0.031319
2021/03/16 01:31:00.000,n,241,2.88,2.16,3.6,19.4,86.8,1019.32,0.18,0,0,0,0.028725
2021/03/16 01:32:00.000,n,235,4.32,3.96,5.4,19.4,86.8,1019.32,0.18,0,0,0,0.033073
2021/03/16 01:33:00.000,n,279,6.84,5.76,7.2,19.4,86.8,1019.22,0.18,0,0,0,0.02697
2021/03/16 01:34:00.000,n,302,4.32,3.24,5.4,19.4,86.7,1019.22,0.18,0,0,0,0.030441
2021/03/16 01:35:00.007,n,286,2.16,0.72,3.6,19.4,86.7,1019.22,0.18,0,0,0,0.030441
2021/03/16 01:36:00.005,n,257,2.52,2.16,2.88,19.4,86.6,1019.22,0.18,0,0,0,0.02697
2021/03/16 01:37:00.002,n,275,4.32,3.24,4.68,19.4,86.5,1019.22,0.18,0,0,0,0.02697
2021/03/16 01:38:00.000,n,258,1.8,1.08,2.16,19.4,86.4,1019.22,0.18,0,0,0,0.028725
2021/03/16 01:39:00.013,n,257,5.76,5.04,5.76,19.4,86.5,1019.22,0.18,0,0,0,0.029564
2021/03/16 01:40:00.000,n,272,3.6,3.24,3.96,19.4,86.7,1019.22,0.18,0,0,0,0.031319
2021/03/16 01:41:00.000,n,267,2.52,1.44,3.6,19.4,86.6,1019.12,0.18,0,0,0,0.03479
2021/03/16 01:42:00.004,n,238,4.32,4.32,4.68,19.4,86.6,1019.12,0.18,0,0,0,0.029564
2021/03/16 01:43:00.001,n,276,6.12,5.76,6.48,19.4,86.5,1019.12,0.18,0,0,0,0.027847
2021/03/16 01:44:00.000,n,248,3.24,3.24,3.24,19.3,86.5,1019.12,0.18,0,0,0,0.028725
2021/03/16 01:45:00.000,n,224,2.52,2.16,2.88,19.3,86.5,1019.12,0.18,0,0,0,0.028725
2021/03/16 01:46:00.009,n,264,3.96,3.6,4.68,19.4,86.9,1019.12,0.18,0,0,0,0.031319
2021/03/16 01:47:00.006,n,171,3.24,2.16,4.32,19.4,86.7,1019.12,0.18,0,0,0,0.030441
2021/03/16 01:48:00.003,n,145,3.6,2.88,3.96,19.4,86.6,1019.12,0.18,0,0,0,0.029564
2021/03/16 01:49:00.000,n,260,3.96,3.24,3.96,19.4,86.7,1019.12,0.18,0,0,0,0.028725
2021/03/16 01:50:00.000,n,144,3.96,3.6,4.68,19.4,86.8,1019.02,0.18,0,0,0,0.02697
2021/03/16 01:51:00.000,n,244,4.32,3.24,5.4,19.4,86.9,1019.02,0.18,0,0,0,0.028725
2021/03/16 01:52:00.000,n,191,4.32,3.96,4.32,19.4,86.8,1019.02,0.18,0,0,0,0.028725
2021/03/16 01:53:00.006,n,268,2.16,1.8,2.16,19.4,86.7,1019.12,0.18,0,0,0,0.028725
2021/03/16 01:54:00.003,n,197,3.6,2.52,4.68,19.4,86.6,1019.02,0.18,0,0,0,0.031319
2021/03/16 01:55:00.000,n,140,1.08,0.36,1.44,19.4,86.7,1019.02,0.18,0,0,0,0.031319
2021/03/16 01:56:00.014,n,176,1.08,0.36,2.16,19.4,86.8,1019.02,0.18,0,0,0,0.02697
2021/03/16 01:57:00.011,n,275,2.52,2.16,2.88,19.4,86.8,1019.02,0.18,0,0,0,0.027847
2021/03/16 01:58:00.000,n,220,2.16,1.08,3.24,19.4,86.8,1019.02,0.18,0,0,0,0.027847
2021/03/16 01:59:00.000,n,186,1.44,0.36,2.16,19.4,86.8,1019.02,0.19,0.1,0,0,0.028725
2021/03/16 02:00:00.005,n,205,2.16,2.16,2.52,19.4,86.7,1019.12,0.19,0.2,0,0,0.033951
2021/03/16 02:01:00.003,n,250,2.52,2.16,3.24,19.4,86.7,1019.12,0.19,0.1,0,0,0.026093
2021/03/16 02:02:00.000,n,295,1.8,0.72,2.52,19.4,86.7,1019.12,0.19,0,0,0,0.02697
2021/03/16 02:03:00.000,n,255,2.52,2.16,2.88,19.5,87,1019.12,0.19,0,0,0,0.02697
2021/03/16 02:04:00.013,n,244,2.52,1.8,3.24,19.5,86.8,1019.12,0.2,0,0,0,0.028725
2021/03/16 02:05:00.010,n,196,1.44,0.36,2.16,19.5,86.8,1019.02,0.2,0,0,0,0.027847
2021/03/16 02:06:00.016,n,216,2.52,1.8,3.24,19.5,86.8,1019.02,0.2,0,0,0,0.024376
2021/03/16 02:07:00.000,n,262,5.76,5.04,6.48,19.5,86.8,1019.02,0.2,0,0,0,0.031319
2021/03/16 02:08:00.000,n,208,5.4,4.68,5.76,19.5,86.7,1018.92,0.2,0,0,0,0.030441
2021/03/16 02:09:00.002,n,237,1.44,0.72,2.16,19.5,86.6,1018.92,0.2,0,0,0,0.027847
2021/03/16 02:10:00.000,n,166,2.52,1.08,3.6,19.4,86.6,1018.92,0.23,2.1,0,0,0.022583
2021/03/16 02:11:00.000,n,201,2.88,2.88,3.24,19.4,86.7,1018.92,0.23,0,0,0,0.033073
2021/03/16 02:12:00.003,n,151,5.4,3.96,6.48,19.4,86.7,1018.92,0.23,0,0,0,0.030441
2021/03/16 02:13:00.010,n,251,1.08,0.72,1.8,19.4,86.8,1018.92,0.23,0,0,0,0.026093
2021/03/16 02:14:00.000,n,204,1.08,0.72,1.8,19.4,86.8,1018.92,0.23,0,0,0,0.032158
2021/03/16 02:15:00.004,n,248,4.32,3.96,5.04,19.5,86.7,1018.92,0.23,0,0,0,0.031319
2021/03/16 02:16:00.000,n,184,3.6,2.88,5.04,19.4,86.7,1018.82,0.23,0,0,0,0.031319
2021/03/16 02:17:00.000,n,245,1.8,0.72,2.52,19.4,86.7,1018.82,0.24,0,0,0,0.030441
2021/03/16 02:18:00.000,n,245,1.8,1.8,2.52,19.4,86.7,1018.82,0.24,0.1,0,0,0.030441
2021/03/16 02:19:00.000,n,285,4.32,3.96,4.68,19.4,87,1018.72,0.24,0.2,0,0,0.031319
2021/03/16 02:20:00.001,n,244,3.24,2.88,3.24,19.5,86.9,1018.72,0.24,0,0,0,0.02697
2021/03/16 02:21:00.008,n,200,1.44,1.08,1.8,19.5,86.7,1018.72,0.24,0,0,0,0.02697
2021/03/16 02:22:00.000,n,153,1.44,0.72,2.52,19.5,86.6,1018.62,0.24,0,0,0,0.027847
2021/03/16 02:23:00.003,n,210,3.96,3.6,4.32,19.5,86.8,1018.62,0.24,0,0,0,0.029564
2021/03/16 02:24:00.008,n,117,2.88,2.16,3.6,19.5,86.6,1018.62,0.24,0,0,0,0.031319
2021/03/16 02:25:00.000,n,185,5.04,4.68,5.76,19.4,86.6,1018.62,0.24,0,0,0,0.03479
2021/03/16 02:26:00.003,n,222,3.6,3.6,3.96,19.4,86.6,1018.62,0.24,0,0,0,0.028725
2021/03/16 02:27:00.000,n,206,2.52,1.44,3.24,19.4,86.6,1018.62,0.24,0,0,0,0.028725
2021/03/16 02:28:00.000,n,174,3.96,2.52,5.76,19.4,86.7,1018.62,0.24,0,0,0,0.029564
2021/03/16 02:29:00.006,n,188,6.12,5.76,6.84,19.4,86.7,1018.62,0.24,0,0,0,0.032158
2021/03/16 02:30:00.000,n,205,1.8,1.44,1.8,19.4,86.6,1018.62,0.24,0,0,0,0.025215
2021/03/16 02:31:00.001,n,256,2.16,1.44,2.52,19.4,86.7,1018.62,0.24,0,0,0,0.027847
2021/03/16 02:32:00.007,n,161,1.8,1.44,2.52,19.4,86.7,1018.62,0.24,0,0,0,0.026093
2021/03/16 02:33:00.013,n,253,5.4,3.6,6.12,19.4,86.6,1018.62,0.24,0,0,0,0.031319
2021/03/16 02:34:00.000,n,245,2.88,2.88,3.24,19.4,86.6,1018.62,0.24,0,0,0,0.02697
2021/03/16 02:35:00.000,n,212,0.36,0,0.72,19.4,86.7,1018.62,0.24,0,0,0,0.029564
2021/03/16 02:36:00.000,n,179,0.72,0.36,0.72,19.4,86.9,1018.62,0.24,0,0,0,0.033073
2021/03/16 02:37:00.003,n,238,2.16,1.8,2.52,19.5,86.8,1018.62,0.24,0,0,0,0.024376
2021/03/16 02:38:00.008,n,280,2.88,2.52,3.96,19.5,86.8,1018.62,0.24,0,0,0,0.02697
2021/03/16 02:39:00.000,n,239,3.96,3.24,5.04,19.5,86.6,1018.62,0.24,0,0,0,0.033073
2021/03/16 02:40:00.004,n,254,5.76,4.32,6.84,19.4,86.3,1018.62,0.24,0,0,0,0.024376
2021/03/16 02:41:00.010,n,266,3.24,1.44,4.68,19.4,86.4,1018.62,0.24,0,0,0,0.031319
2021/03/16 02:42:00.015,n,253,5.4,4.68,6.12,19.4,86.3,1018.62,0.24,0,0,0,0.02697
2021/03/16 02:43:00.000,n,291,2.16,1.08,2.88,19.4,86.5,1018.62,0.24,0,0,0,0.033073
2021/03/16 02:44:00.000,n,225,7.92,7.2,8.64,19.4,86.5,1018.62,0.24,0,0,0,0.030441
2021/03/16 02:45:00.000,n,269,1.08,0,2.16,19.3,86.4,1018.62,0.24,0,0,0,0.02697
2021/03/16 02:46:00.006,n,224,2.88,2.16,3.6,19.3,86.4,1018.62,0.24,0,0,0,0.025215
2021/03/16 02:47:00.000,n,287,1.8,1.44,2.16,19.3,86.4,1018.62,0.24,0,0,0,0.028725
2021/03/16 02:48:00.001,n,147,0.72,0,1.08,19.3,86.7,1018.62,0.24,0,0,0,0.033073
2021/03/16 02:49:00.006,n,234,3.96,3.6,4.68,19.4,86.5,1018.62,0.24,0,0,0,0.028725
2021/03/16 02:50:00.012,n,268,3.6,2.52,4.68,19.4,86.6,1018.72,0.24,0,0,0,0.033951
2021/03/16 02:51:00.001,n,275,5.04,2.88,6.84,19.4,86.3,1018.72,0.24,0,0,0,0.029564
2021/03/16 02:52:00.000,n,238,2.52,0.72,5.4,19.3,86.1,1018.72,0.24,0,0,0,0.030441
2021/03/16 02:53:00.000,n,261,4.68,4.32,5.04,19.3,86.2,1018.72,0.24,0,0,0,0.030441
2021/03/16 02:54:00.002,n,234,2.52,2.16,2.88,19.3,86.2,1018.72,0.24,0,0,0,0.023499
2021/03/16 02:55:00.008,n,261,3.6,2.52,4.32,19.3,86.2,1018.82,0.24,0,0,0,0.027847
2021/03/16 02:56:00.000,n,121,2.52,1.8,2.88,19.3,86.3,1018.82,0.24,0,0,0,0.02697
2021/03/16 02:57:00.002,n,277,3.6,2.16,4.68,19.3,86.2,1018.82,0.24,0,0,0,0.031319
2021/03/16 02:58:00.008,n,30,1.44,0.72,1.8,19.3,86.3,1018.82,0.24,0,0,0,0.030441
2021/03/16 02:59:00.013,n,274,6.84,6.48,7.56,19.3,86.2,1018.82,0.24,0,0,0,0.032158
2021/03/16 03:00:00.002,n,228,4.32,3.96,6.84,19.3,86.1,1018.82,0.24,0,0,0,0.027847
2021/03/16 03:01:00.000,n,151,3.96,1.8,6.12,19.3,85.9,1018.82,0.24,0,0,0,0.032158
2021/03/16 03:02:00.000,n,136,2.52,1.8,3.6,19.2,86,1018.82,0.24,0,0,0,0.033073
2021/03/16 03:03:00.003,n,250,1.8,1.08,2.52,19.3,86.2,1018.82,0.29,0,0,0,0.031319
2021/03/16 03:04:00.000,n,211,3.24,2.52,3.96,19.3,86.1,1018.82,0.29,2.9,0,0,0.028725
2021/03/16 03:05:00.000,n,244,7.56,6.84,7.92,19.3,86.1,1018.82,0.29,0.1,0,0,0.028725
2021/03/16 03:06:00.006,n,225,3.24,2.52,3.96,19.3,85.9,1018.82,0.29,0,0,0,0.02697
2021/03/16 03:07:00.012,n,255,3.96,3.24,4.68,19.3,85.9,1018.92,0.29,0,0,0,0.029564
2021/03/16 03:08:00.002,n,261,5.4,4.68,6.12,19.3,85.9,1018.92,0.29,0,0,0,0.027847
2021/03/16 03:09:00.007,n,75,1.44,0.72,2.16,19.3,85.8,1018.92,0.29,0,0,0,0.02697
2021/03/16 03:10:00.000,n,353,2.16,1.44,3.6,19.3,86.1,1018.92,0.29,0,0,0,0.033073
2021/03/16 03:11:00.003,n,312,4.32,2.16,6.12,19.3,86.2,1019.02,0.29,0,0,0,0.027847
2021/03/16 03:12:00.000,n,254,4.32,3.6,5.04,19.3,86.1,1019.02,0.29,0,0,0,0.031319
2021/03/16 03:13:00.000,n,269,2.88,2.52,3.24,19.4,86.1,1019.02,0.29,0,0,0,0.033073
2021/03/16 03:14:00.005,n,287,3.24,2.88,3.96,19.4,85.9,1019.02,0.29,0,0,0,0.029564
2021/03/16 03:15:00.010,n,245,5.76,4.68,6.48,19.3,85.7,1019.02,0.29,0,0,0,0.029564
2021/03/16 03:16:00.000,n,278,1.8,0.36,3.24,19.3,85.7,1019.12,0.29,0,0,0,0.031319
2021/03/16 03:17:00.006,n,242,3.6,2.52,4.32,19.3,85.7,1019.12,0.29,0,0,0,0.031319
2021/03/16 03:18:00.012,n,289,0.72,0.36,2.52,19.3,85.8,1019.12,0.29,0,0,0,0.028725
2021/03/16 03:19:00.000,n,199,7.2,4.68,9.72,19.3,85.8,1019.12,0.29,0,0,0,0.031319
2021/03/16 03:20:00.000,n,298,6.12,5.04,7.56,19.3,85.5,1019.12,0.29,0,0,0,0.029564
2021/03/16 03:21:00.000,n,284,7.92,5.04,10.08,19.3,85.6,1019.12,0.29,0,0,0,0.030441
2021/03/16 03:22:00.003,n,217,3.96,3.6,4.32,19.3,85.5,1019.12,0.29,0,0,0,0.028725
2021/03/16 03:23:00.008,n,189,0.72,0.36,1.08,19.3,85.6,1019.12,0.29,0,0,0,0.031319
2021/03/16 03:24:00.000,n,236,2.88,2.52,3.6,19.3,85.6,1019.12,0.29,0,0,0,0.031319
2021/03/16 03:25:00.003,n,137,4.68,3.96,5.4,19.3,85.5,1019.12,0.29,0,0,0,0.027847
2021/03/16 03:26:00.010,n,265,1.8,1.44,2.88,19.3,85.5,1019.12,0.3,0,0,0,0.033073
2021/03/16 03:27:00.016,n,245,5.04,3.6,6.12,19.3,85.5,1019.12,0.3,0.2,0,0,0.030441
2021/03/16 03:28:00.000,n,231,5.4,2.88,7.2,19.3,85.5,1019.12,0.3,0,0,0,0.030441
2021/03/16 03:29:00.000,n,197,5.04,4.32,6.12,19.2,85.3,1019.12,0.3,0,0,0,0.030441
2021/03/16 03:30:00.002,n,204,7.2,6.48,7.92,19.2,85.2,1019.12,0.3,0.1,0,0,0.030441
2021/03/16 03:31:00.000,n,264,2.52,2.16,3.24,19.2,85.1,1019.12,0.3,0,0,0,0.027847
2021/03/16 03:32:00.000,n,196,2.88,1.8,3.96,19.2,85.1,1019.12,0.3,0,0,0,0.030441
2021/03/16 03:33:00.004,n,216,1.44,1.08,1.8,19.2,85.1,1019.12,0.3,0,0,0,0.030441
2021/03/16 03:34:00.010,n,255,3.6,3.24,3.96,19.3,85.4,1019.22,0.3,0,0,0,0.033951
2021/03/16 03:35:00.000,n,185,2.16,0.72,2.88,19.3,85.1,1019.22,0.3,0,0,0,0.028725
2021/03/16 03:36:00.005,n,304,1.8,1.08,2.88,19.2,85.2,1019.22,0.3,0,0,0,0.029564
2021/03/16 03:37:00.000,n,30,0.72,0.36,0.72,19.3,85,1019.22,0.3,0,0,0,0.027847
2021/03/16 03:38:00.000,n,255,5.4,2.52,8.28,19.2,84.9,1019.22,0.3,0,0,0,0.031319
2021/03/16 03:39:00.000,n,107,2.16,1.44,2.88,19.2,84.9,1019.22,0.3,0,0,0,0.029564
2021/03/16 03:40:00.000,n,188,3.24,2.52,4.68,19.2,85,1019.22,0.3,0,0,0,0.030441
2021/03/16 03:41:00.002,n,221,2.16,0.36,3.24,19.2,85,1019.32,0.3,0,0,0,0.028725
2021/03/16 03:42:00.008,n,185,6.48,5.4,8.64,19.2,84.6,1019.22,0.31,0.4,0,0,0.027847
2021/03/16 03:43:00.000,n,226,0.36,0.36,0.72,19.2,84.9,1019.32,0.31,0,0,0,0.030441
2021/03/16 03:44:00.004,n,195,2.16,1.08,2.52,19.2,84.7,1019.22,0.31,0,0,0,0.02697
2021/03/16 03:45:00.009,n,248,3.24,2.52,3.96,19.2,84.7,1019.22,0.31,0.1,0,0,0.032158
2021/03/16 03:46:00.000,n,325,7.2,6.12,8.64,19.2,84.7,1019.22,0.32,0.2,0,0,0.028725
2021/03/16 03:47:00.000,n,182,8.64,7.2,11.16,19.2,84.2,1019.22,0.32,0,0,0,0.030441
2021/03/16 03:48:00.000,n,118,1.8,1.08,3.24,19.2,84.3,1019.22,0.32,0,0,0,0.027847
2021/03/16 03:49:00.001,n,280,3.96,2.88,5.76,19.2,84.2,1019.22,0.32,0,0,0,0.027847
2021/03/16 03:50:00.007,n,190,6.48,5.4,8.28,19.2,84,1019.22,0.32,0,0,0,0.029564
2021/03/16 03:51:00.000,n,202,3.96,2.88,5.04,19.1,83.7,1019.22,0.32,0,0,0,0.02697
2021/03/16 03:52:00.004,n,188,1.08,0.72,1.44,19.1,83.8,1019.22,0.32,0,0,0,0.029564
2021/03/16 03:53:00.010,n,153,3.6,2.88,4.68,19.1,84,1019.22,0.32,0,0,0,0.032158
2021/03/16 03:54:00.016,n,170,5.4,3.6,7.92,19.1,84,1019.22,0.32,0,0,0,0.028725
2021/03/16 03:55:00.000,n,146,6.84,5.76,6.84,19.1,83.9,1019.12,0.32,0,0,0,0.02697
2021/03/16 03:56:00.000,n,190,9.36,8.64,10.08,19.1,83.4,1019.12,0.32,0,0,0,0.02697
2021/03/16 03:57:00.001,n,168,8.28,6.84,9,19.1,83.4,1019.12,0.32,0,0,0,0.027847
2021/03/16 03:58:00.000,n,189,7.92,7.56,8.64,19.1,83.3,1019.12,0.32,0,0,0,0.027847
2021/03/16 03:59:00.000,n,222,4.68,2.16,5.76,19.1,83.4,1019.12,0.34,0.9,0,0,0.024376
2021/03/16 04:00:00.003,n,224,6.12,5.4,7.92,19.1,83.4,1019.12,0.35,0.6,0,0,0.021744
2021/03/16 04:01:00.010,n,179,5.76,4.68,6.48,19.1,83.4,1019.22,0.35,0.6,0,0,0.02697
2021/03/16 04:02:00.000,n,148,3.24,1.08,5.04,19.1,83.4,1019.22,0.35,0,0,0,0.023499
2021/03/16 04:03:00.006,n,347,2.88,1.8,3.24,19.1,83.9,1019.22,0.39,2.2,0,0,0.024376
2021/03/16 04:04:00.000,n,139,2.88,1.8,3.96,19.2,83.9,1019.22,0.39,0.1,0,0,0.024376
2021/03/16 04:05:00.001,n,222,3.96,3.6,4.68,19.2,83.9,1019.32,0.41,0.5,0,0,0.027847
2021/03/16 04:06:00.000,n,200,4.32,3.6,5.04,19.2,83.5,1019.32,0.42,0.6,0,0,0.024376
2021/03/16 04:07:00.000,n,204,3.24,2.52,3.6,19.2,83.5,1019.32,0.43,0.9,0,0,0.020866
2021/03/16 04:08:00.004,n,197,4.68,4.68,5.76,19.2,83.9,1019.32,0.44,0.3,0,0,0.023499
2021/03/16 04:09:00.010,n,243,1.44,0.72,1.8,19.2,83.9,1019.32,0.45,0.4,0,0,0.022583
2021/03/16 04:10:00.000,n,276,2.52,2.52,2.88,19.2,84.1,1019.32,0.46,0.8,0,0,0.024376
2021/03/16 04:11:00.006,n,209,1.44,0.36,2.16,19.3,84,1019.42,0.47,0.7,0,0,0.01915
2021/03/16 04:12:00.014,n,191,1.8,1.44,2.16,19.3,83.9,1019.42,0.48,0.7,0,0,0.030441
2021/03/16 04:13:00.000,n,179,6.12,5.4,7.2,19.3,83.7,1019.32,0.49,0.4,0,0,0.033073
2021/03/16 04:14:00.000,n,210,4.32,3.6,5.04,19.2,83.8,1019.32,0.5,0.4,0,0,0.029564
2021/03/16 04:15:00.000,n,159,3.6,2.52,4.68,19.2,83.6,1019.32,0.51,0.5,0,0,0.039139
2021/03/16 04:16:00.002,n,175,3.24,2.88,3.6,19.2,83.8,1019.32,0.53,1,0,0,0.03479
2021/03/16 04:17:00.009,n,323,2.88,1.08,3.6,19.2,84.2,1019.32,0.54,0.8,0,0,0.03479
2021/03/16 04:18:00.000,n,251,3.96,2.88,4.32,19.2,84,1019.32,0.57,1.4,0,0,0.032196
2021/03/16 04:19:00.005,n,173,3.6,2.88,3.96,19.2,83.9,1019.32,0.57,0.5,0,0,0.032196
2021/03/16 04:20:00.011,n,292,5.04,2.16,8.64,19.2,84.1,1019.32,0.59,1.1,0,0,0.032196
2021/03/16 04:21:00.001,n,166,2.52,1.8,2.88,19.2,84.2,1019.32,0.61,1.1,0,0,0.033073
2021/03/16 04:22:00.000,n,258,2.52,1.8,3.24,19.2,84.3,1019.32,0.62,0.4,0,0,0.031357
2021/03/16 04:23:00.000,n,201,3.24,2.88,3.6,19.2,84.2,1019.32,0.63,0.4,0,0,0.032196
2021/03/16 04:24:00.004,n,197,2.52,1.44,2.88,19.2,84.1,1019.32,0.64,0.9,0,0,0.033073
2021/03/16 04:25:00.000,n,182,6.84,5.76,7.92,19.1,83.9,1019.32,0.66,0.9,0,0,0.033951
2021/03/16 04:26:00.001,n,200,6.48,5.4,7.2,19.1,84.1,1019.32,0.67,0.5,0,0,0.033073
2021/03/16 04:27:00.008,n,163,3.96,2.52,4.68,19.1,84,1019.32,0.68,0.6,0,0,0.031357
2021/03/16 04:28:00.000,n,242,0.72,0.36,1.8,19.1,84.1,1019.32,0.69,0.8,0,0,0.027847
2021/03/16 04:29:00.003,n,283,1.8,1.08,2.52,19.1,84.2,1019.32,0.71,0.7,0,0,0.033951
2021/03/16 04:30:00.009,n,187,2.52,1.08,2.88,19.1,84.4,1019.32,0.72,0.5,0,0,0.033951
2021/03/16 04:31:00.000,n,280,3.96,3.6,3.96,19.1,84.4,1019.32,0.72,0.6,0,0,0.033951
2021/03/16 04:32:00.000,n,245,1.08,0.36,2.16,19.1,84.2,1019.32,0.74,0.7,0,0,0.031357
2021/03/16 04:33:00.000,n,135,3.96,3.24,4.68,19.1,84.2,1019.32,0.74,0.5,0,0,0.031357
2021/03/16 04:34:00.001,n,210,2.88,2.16,3.24,19.1,84.2,1019.32,0.77,1.4,0,0,0.03479
2021/03/16 04:35:00.008,n,140,1.44,0.72,1.8,19.1,84.3,1019.22,0.79,1.3,0,0,0.027847
2021/03/16 04:36:00.000,n,183,5.4,3.6,6.84,19.1,84.2,1019.22,0.81,0.9,0,0,0.029564
2021/03/16 04:37:00.003,n,203,3.6,2.52,4.68,19.1,84.2,1019.22,0.84,1.7,0,0,0.031357
2021/03/16 04:38:00.010,n,326,1.08,0.72,1.8,19.1,84.5,1019.22,0.86,1.4,0,0,0.033073
2021/03/16 04:39:00.016,n,256,2.52,1.44,3.24,19.1,84.3,1019.22,0.88,1.2,0,0,0.033073
2021/03/16 04:40:00.000,n,183,6.12,4.68,6.84,19,84.1,1019.12,0.91,1.3,0,0,0.03479
2021/03/16 04:41:00.000,n,244,2.16,1.8,2.88,19,84.1,1019.12,0.92,0.9,0,0,0.033073
2021/03/16 04:42:00.003,n,228,2.52,2.16,2.88,19,84.2,1019.12,0.93,0.7,0,0,0.029564